Regional Weather Roundup
Issued by NWS

Home | Current Version | Previous Version | Graphics & Text | Print | Product List | Glossary On
Versions: 1 2 3 4 5 6 7 8 9 10 11 12 13 14 15 16 17 18 19 20 21 22 23 24 25 26 27 28 29 30 31 32 33 34 35 36 37 38 39 40 41 42 43 44 45 46 47 48 49 50
000
ASUS43 KTOP 221459
RWRKS

WEATHER ROUNDUP FOR KANSAS
NATIONAL WEATHER SERVICE GOODLAND KS
1000 AM CDT TUE JUL 22 2014

NOTE:  "FAIR" INDICATES FEW OR NO CLOUDS BELOW 12,000 FEET WITH NO
SIGNIFICANT WEATHER AND/OR OBSTRUCTIONS TO VISIBILITY.

KSZ001>006-013>018-027>032-041>047-221600-
NORTHWEST KANSAS

CITY           SKY/WX    TMP DP  RH WIND       PRES   REMARKS
GOODLAND       SUNNY     84  59  42 E17       30.17R
HAYS           SUNNY     81  63  54 S3        30.10F
HILL CITY      SUNNY     80  65  59 S7        30.11S
RUSSELL        SUNNY     85  67  54 N6        30.09R
$$

KSZ061>065-074>080-084>089-221600-
SOUTHWEST KANSAS

CITY           SKY/WX    TMP DP  RH WIND       PRES   REMARKS
DODGE CITY     MOSUNNY   82  68  62 S7        30.13R
ELKHART          N/A     79  66  64 SW6         N/A
GARDEN CITY    MOSUNNY   81  68  64 S7        30.13S
GREAT BEND     SUNNY     82  68  61 SW8       30.08S
LIBERAL        MOSUNNY   77  68  73 SW5       30.16S
PRATT          SUNNY     84  68  58 S10       30.11S
$$

KSZ066>073-081>083-090>101-221600-
SOUTHEAST KANSAS

CITY           SKY/WX    TMP DP  RH WIND       PRES   REMARKS
CHANUTE        SUNNY     83  73  72 SW16      30.08F
COFFEYVILLE    SUNNY     83  73  72 SW13      30.08F
HUTCHINSON     SUNNY     87  71  58 S9        30.07F
MEDICINE LODGE   N/A     83  72  69 S7        30.09R
NEWTON         SUNNY     84  70  61 SW10      30.10F
PARSONS        SUNNY     83  73  72 S9        30.09F
WICHITA INTL   MOSUNNY   85  74  69 S12       30.07F
WICHITA JABRA  SUNNY     85  74  69 SW10      30.07F
WINFIELD       SUNNY     83  76  79 SW12      30.10S
$$

KSZ007>012-019>026-033>040-048>060-102>105-221600-
NORTHEAST KANSAS

CITY           SKY/WX    TMP DP  RH WIND       PRES   REMARKS
CONCORDIA      MOSUNNY   88  65  46 SW12      30.05F
EMPORIA        SUNNY     87  74  64 SW10      30.05F HX  95
LAWRENCE       SUNNY     86  75  69 SW8       30.03S HX  95
MANHATTAN      SUNNY     88  73  61 W12       30.04R HX  95
OLATHE IND     SUNNY     83  74  74 SW15      30.05S
OLATHE EXE     SUNNY     82  75  79 SW10      30.04S
SALINA         MOSUNNY   90  70  51 NW13      30.07R HX  95
TOPEKA BILLARD SUNNY     85  76  74 W8        30.04R
TOPEKA FORBES  SUNNY     84  74  71 W12       30.04R
$$


USA.gov is the U.S. government's official web portal to all federal, state and local government web resources and services.